Regional Weather Roundup
Issued by NWS

Home | Current Version | Previous Version | Graphics & Text | Print | Product List | Glossary On
Versions: 1 2 3 4 5 6 7 8 9 10 11 12 13 14 15 16 17 18 19 20 21 22 23 24 25 26 27 28 29 30 31 32 33 34 35 36 37 38 39 40 41 42 43 44 45 46 47 48 49 50
000
ASUS43 KFSD 251102
RWRSD

WEATHER ROUNDUP FOR SOUTH DAKOTA
NATIONAL WEATHER SERVICE SIOUX FALLS SD
600 AM CDT SAT APR 25 2015

NOTE: "FAIR" INDICATES FEW OR NO CLOUDS BELOW 12,000 FEET WITH NO
SIGNIFICANT WEATHER AND/OR OBSTRUCTIONS TO VISIBILITY.


SDZ001>005-009-010-012>017-251200-
NORTHWEST AND NORTH CENTRAL SOUTH DAKOTA

CITY           SKY/WX    TMP DP  RH WIND       PRES   REMARKS
BUFFALO          N/A     40  38  93 E6        29.62S
FAITH            N/A     43  41  93 NE7       29.68S
MOBRIDGE       CLOUDY    45  43  93 E12       29.70R FOG
$$

SDZ012>016-024>037-041>051-057-063-072>074-251200-
SOUTHWEST AND SOUTH CENTRAL SOUTH DAKOTA

CITY           SKY/WX    TMP DP  RH WIND       PRES   REMARKS
RAPID CTY ARPT PTCLDY    40  37  89 NW8       29.66R
PIERRE         CLOUDY    47  45  93 NE13      29.64R FOG
CUSTER         CLEAR     32  29  88 W3        29.69F
ELLSWORTH AFB  PTCLDY    43  38  83 SW7       29.66R
PHILIP         CLOUDY    47  45  93 N5        29.66R
PINE RIDGE     MOCLDY    40  38  93 CALM      29.66R
WINNER         FOG       50  48  93 E8        29.61R VSB 1/4
$$

SDZ004>011-016>023-039-040-251200-
NORTHEAST SOUTH DAKOTA

CITY           SKY/WX    TMP DP  RH WIND       PRES   REMARKS
ABERDEEN       CLOUDY    45  41  86 NE10      29.73R
WATERTOWN      CLOUDY    42  40  92 E10       29.68R FOG
BROOKINGS      CLOUDY    45  43  93 E15G21    29.67S
SISSETON         N/A     43  42  97 SE12      29.75R
$$

SDZ017-020-022-023-036>040-048>070-251200-
SOUTHEAST SOUTH DAKOTA

CITY           SKY/WX    TMP DP  RH WIND       PRES   REMARKS
SIOUX FALLS    CLOUDY    46  42  86 E15       29.63R
HURON          CLOUDY    47  45  93 NE10      29.66R
MITCHELL       LGT RAIN  50  48  93 E8        29.64R
YANKTON        CLOUDY    48  43  81 E17G25    29.59S
$$

ABBREVIATIONS USED IN REMARKS
   TC - TEMPERATURE IN CELSIUS
  WCI - WIND CHILL INDEX
   HX - HEAT INDEX
  VSB - VISIBILITY



USA.gov is the U.S. government's official web portal to all federal, state and local government web resources and services.